DW8305 Weather Reports


time (UTC)temp
C
wind
direction
speed
KPH
gust
KPH
rain 1hr
cm
rain 24hr
cm
rain mn
cm
humidity
%
barometer
mb
20190418121616 20 67 6.4 14.5 0.00 0.00 0.00 31 1029.4
20190418120616 20 112 14.5 20.9 0.00 0.00 0.00 31 1029.6
20190418115616 20 67 16.1 25.7 0.00 0.00 0.00 30 1029.6
20190418114616 20 67 11.3 19.3 0.00 0.00 0.00 30 1029.7
20190418113616 20 112 14.5 29.0 0.00 0.00 0.00 30 1029.7
20190418112616 20 112 12.9 22.5 0.00 0.00 0.00 31 1029.9
20190418111616 19 67 14.5 25.7 0.00 0.00 0.00 31 1029.9
20190418110616 19 112 11.3 20.9 0.00 0.00 0.00 32 1030.0
20190418105615 19 135 11.3 19.3 0.00 0.00 0.00 32 1030.1
20190418104616 19 90 9.7 14.5 0.00 0.00 0.00 33 1030.1
20190418103616 19 112 8.0 12.9 0.00 0.00 0.00 33 1030.1
20190418102616 18 112 12.9 19.3 0.00 0.00 0.00 34 1030.2
20190418101616 18 67 16.1 22.5 0.00 0.00 0.00 35 1030.3
20190418100616 18 22 4.8 14.5 0.00 0.00 0.00 37 1030.4
20190418095616 18 67 14.5 22.5 0.00 0.00 0.00 38 1030.5
20190418094616 17 67 9.7 16.1 0.00 0.00 0.00 38 1030.6
20190418093616 17 67 12.9 20.9 0.00 0.00 0.00 39 1030.5
20190418092616 17 90 6.4 12.9 0.00 0.00 0.00 40 1030.6
20190418090616 16 67 8.0 11.3 0.00 0.00 0.00 42 1030.7
20190418085616 15 67 11.3 16.1 0.00 0.00 0.00 43 1030.8
20190418084616 15 67 9.7 16.1 0.00 0.00 0.00 43 1030.8
20190418083616 15 67 8.0 11.3 0.00 0.00 0.00 46 1030.8
20190418082616 15 67 9.7 12.9 0.00 0.00 0.00 47 1030.8
20190418081616 14 90 6.4 9.7 0.00 0.00 0.00 49 1030.7
20190418080617 13 67 8.0 11.3 0.00 0.00 0.00 51 1030.8
20190418075616 13 90 3.2 4.8 0.00 0.00 0.00 54 1030.7
20190418074620 12 90 4.8 9.7 0.00 0.00 0.00 54 1030.8
20190418073616 12 90 8.0 9.7 0.00 0.00 0.00 55 1030.7
20190418072616 11 67 3.2 6.4 0.00 0.00 0.00 58 1030.8
20190418071616 11 112 3.2 4.8 0.00 0.00 0.00 59 1030.8
20190418070621 11 90 6.4 8.0 0.00 0.00 0.00 59 1030.8
20190418065616 10 90 3.2 4.8 0.00 0.00 0.00 62 1030.7
20190418064617 10 112 3.2 6.4 0.00 0.00 0.00 64 1030.7
20190418063615 9 90 1.6 4.8 0.00 0.00 0.00 66 1030.6
20190418062615 8 67 6.4 9.7 0.00 0.00 0.00 67 1030.6
20190418061616 8 90 4.8 6.4 0.00 0.00 0.00 68 1030.5
20190418060616 7 90 3.2 8.0 0.00 0.00 0.00 70 1030.4
20190418055620 7 67 4.8 9.7 0.00 0.00 0.00 72 1030.3
20190418054616 7 67 4.8 4.8 0.00 0.00 0.00 72 1030.2
20190418053616 6 67 1.6 3.2 0.00 0.00 0.00 73 1030.2
20190418052616 6 67 1.6 3.2 0.00 0.00 0.00 74 1030.1
20190418051615 6 67 3.2 6.4 0.00 0.00 0.00 75 1030.1
20190418050616 6 67 3.2 3.2 0.00 0.00 0.00 76 1030.0
20190418045616 5 67 1.6 3.2 0.00 0.00 0.00 77 1029.9
20190418044615 5 45 3.2 4.8 0.00 0.00 0.00 78 1029.8
20190418043616 5 45 1.6 3.2 0.00 0.00 0.00 77 1029.7
20190418042615 5 67 3.2 4.8 0.00 0.00 0.00 77 1029.5
20190418041616 5 67 1.6 3.2 0.00 0.00 0.00 77 1029.4
20190418040616 5 45 1.6 3.2 0.00 0.00 0.00 77 1029.3
20190418035615 6 67 3.2 3.2 0.00 0.00 0.00 77 1029.3
20190418034615 6 67 1.6 3.2 0.00 0.00 0.00 76 1029.3
20190418033616 6 0.0 1.6 0.00 0.00 0.00 76 1029.2
20190418032619 6 0.0 1.6 0.00 0.00 0.00 76 1029.2
20190418031615 6 0.0 1.6 0.00 0.00 0.00 75 1029.2
20190418030616 6 45 1.6 3.2 0.00 0.00 0.00 75 1029.1
20190418025616 6 0.0 1.6 0.00 0.00 0.00 75 1029.1
20190418024616 6 67 1.6 3.2 0.00 0.00 0.00 76 1029.1
20190418023616 6 0.0 0.0 0.00 0.00 0.00 76 1029.1
20190418022615 6 67 1.6 1.6 0.00 0.00 0.00 76 1029.0
20190418021616 6 45 1.6 3.2 0.00 0.00 0.00 75 1028.9
20190418020615 6 90 1.6 1.6 0.00 0.00 0.00 75 1028.9
20190418015616 7 67 3.2 3.2 0.00 0.00 0.00 75 1028.8
20190418014616 7 0.0 0.0 0.00 0.00 0.00 75 1028.9
20190418013615 7 0.0 1.6 0.00 0.00 0.00 75 1028.8
20190418012615 7 0.0 0.0 0.00 0.00 0.00 74 1028.8
20190418011619 7 0.0 1.6 0.00 0.00 0.00 74 1028.9
20190418010615 7 0.0 0.0 0.00 0.00 0.00 74 1028.8
20190418005615 7 0.0 0.0 0.00 0.00 0.00 73 1028.7
20190418004616 7 0.0 1.6 0.00 0.00 0.00 73 1028.7
20190418003616 7 90 1.6 1.6 0.00 0.00 0.00 73 1028.7
20190418002616 7 0.0 1.6 0.00 0.00 0.00 72 1028.7
20190418001615 7 90 1.6 1.6 0.00 0.00 0.00 72 1028.8
20190418000615 8 0.0 0.0 0.00 0.00 0.00 71 1028.7
20190417235617 8 0.0 0.0 0.00 0.00 0.00 71 1028.7
20190417234615 8 0.0 1.6 0.00 0.00 0.00 70 1028.7
20190417233616 8 67 1.6 3.2 0.00 0.00 0.00 70 1028.7
20190417232615 8 90 1.6 3.2 0.00 0.00 0.00 69 1028.7
20190417231615 8 90 1.6 4.8 0.00 0.00 0.00 68 1028.7
20190417230615 9 90 1.6 3.2 0.00 0.00 0.00 67 1028.5
20190417225615 9 67 1.6 3.2 0.00 0.00 0.00 67 1028.4
20190417224615 9 67 3.2 3.2 0.00 0.00 0.00 67 1028.3
20190417223615 9 67 3.2 3.2 0.00 0.00 0.00 66 1028.3
20190417222616 10 67 3.2 3.2 0.00 0.00 0.00 65 1028.2
20190417221617 10 90 3.2 3.2 0.00 0.00 0.00 65 1028.2
20190417220616 10 67 3.2 3.2 0.00 0.00 0.00 64 1028.1
20190417215618 10 90 3.2 4.8 0.00 0.00 0.00 63 1028.0
20190417214619 10 67 3.2 4.8 0.00 0.00 0.00 62 1027.9
20190417213616 10 67 3.2 4.8 0.00 0.00 0.00 62 1027.9
20190417212616 11 67 3.2 4.8 0.00 0.00 0.00 61 1027.8
20190417211616 11 67 4.8 6.4 0.00 0.00 0.00 60 1027.7
20190417210616 11 67 3.2 6.4 0.00 0.00 0.00 59 1027.7
20190417205616 11 90 3.2 4.8 0.00 0.00 0.00 57 1027.6
20190417204616 11 67 3.2 4.8 0.00 0.00 0.00 56 1027.6
20190417203616 12 67 4.8 8.0 0.00 0.00 0.00 54 1027.6
20190417202616 12 67 4.8 6.4 0.00 0.00 0.00 53 1027.5
20190417201616 12 45 3.2 4.8 0.00 0.00 0.00 51 1027.5
20190417200616 12 67 3.2 4.8 0.00 0.00 0.00 50 1027.4
20190417195616 12 67 4.8 6.4 0.00 0.00 0.00 47 1027.4
20190417194616 12 67 3.2 4.8 0.00 0.00 0.00 45 1027.3
20190417193616 13 67 4.8 6.4 0.00 0.00 0.00 44 1027.3
20190417192616 13 67 3.2 4.8 0.00 0.00 0.00 41 1027.3
20190417191617 13 67 3.2 3.2 0.00 0.00 0.00 39 1027.1
20190417190616 13 67 3.2 3.2 0.00 0.00 0.00 38 1027.1
20190417185619 14 67 3.2 4.8 0.00 0.00 0.00 38 1026.9
20190417184616 14 67 3.2 4.8 0.00 0.00 0.00 37 1026.7
20190417183616 15 67 4.8 6.4 0.00 0.00 0.00 36 1026.6
20190417182625 15 67 4.8 6.4 0.00 0.00 0.00 35 1026.4
20190417181616 15 67 4.8 8.0 0.00 0.00 0.00 34 1026.4
20190417180616 15 67 4.8 8.0 0.00 0.00 0.00 33 1026.3
20190417175616 16 67 4.8 6.4 0.00 0.00 0.00 32 1026.2
20190417174616 16 67 3.2 4.8 0.00 0.00 0.00 32 1026.1
20190417173616 16 67 8.0 11.3 0.00 0.00 0.00 31 1025.9
20190417172616 17 90 3.2 8.0 0.00 0.00 0.00 30 1025.8
20190417171616 17 67 8.0 12.9 0.00 0.00 0.00 29 1025.8
20190417170616 17 67 11.3 19.3 0.00 0.00 0.00 28 1025.7
20190417165616 17 90 4.8 6.4 0.00 0.00 0.00 28 1025.7
20190417164621 17 112 8.0 11.3 0.00 0.00 0.00 26 1025.6
20190417163616 18 90 9.7 16.1 0.00 0.00 0.00 25 1025.5
20190417162616 18 67 12.9 19.3 0.00 0.00 0.00 26 1025.6
20190417161616 18 67 12.9 17.7 0.00 0.00 0.00 26 1025.5
20190417160616 18 67 6.4 11.3 0.00 0.00 0.00 26 1025.5
20190417155616 18 67 6.4 9.7 0.00 0.00 0.00 27 1025.5
20190417154616 18 112 9.7 16.1 0.00 0.00 0.00 26 1025.5
20190417153616 18 90 8.0 12.9 0.00 0.00 0.00 26 1025.7
20190417152616 18 112 9.7 14.5 0.00 0.00 0.00 27 1025.5
20190417151617 18 135 9.7 16.1 0.00 0.00 0.00 27 1025.5
20190417150616 18 67 4.8 8.0 0.00 0.00 0.00 27 1025.4
20190417145616 18 67 9.7 16.1 0.00 0.00 0.00 26 1025.4
20190417144617 18 67 11.3 14.5 0.00 0.00 0.00 27 1025.5
20190417143616 18 135 12.9 19.3 0.00 0.00 0.00 27 1025.5
20190417142617 18 90 4.8 9.7 0.00 0.00 0.00 28 1025.5
20190417141616 18 67 8.0 11.3 0.00 0.00 0.00 28 1025.5
20190417140620 18 112 11.3 17.7 0.00 0.00 0.00 27 1025.8
20190417135622 18 67 6.4 9.7 0.00 0.00 0.00 28 1025.8
20190417134616 18 112 11.3 14.5 0.00 0.00 0.00 30 1025.9
20190417133616 17 112 9.7 17.7 0.00 0.00 0.00 30 1025.9
20190417132616 17 67 9.7 14.5 0.00 0.00 0.00 29 1026.0
20190417131616 17 67 11.3 17.7 0.00 0.00 0.00 30 1026.0
20190417130616 17 67 6.4 8.0 0.00 0.00 0.00 32 1026.0
20190417125616 17 112 11.3 17.7 0.00 0.00 0.00 31 1026.2
20190417124616 17 112 14.5 24.1 0.00 0.00 0.00 31 1026.2
20190417123616 17 67 9.7 16.1 0.00 0.00 0.00 31 1026.1
20190417122616 17 90 8.0 11.3 0.00 0.00 0.00 32 1026.2